This is the latest recevied weather packets stored in our database for station/object N9BLE. If no packets are shown the sender has not sent any weather packets the latest 10 day(s).
| Time | Temp. | Humidity | Pressure | Rain* | Wind** | Luminosity | Snow |
|---|---|---|---|---|---|---|---|
| 1777538004 | 1.67° C | 97% | 1020 hPa | 0 mm | - | 0 W/m² | - |
| 1777537092 | 1.11° C | 97% | 1019.9 hPa | 0 mm | - | 0 W/m² | - |
| 1777536487 | 1.67° C | 97% | 1020.2 hPa | 0 mm | - | 0 W/m² | - |
| 1777536183 | 1.67° C | 97% | 1020.2 hPa | 0 mm | - | 0 W/m² | - |
| 1777534665 | 2.78° C | 96% | 1020 hPa | 0 mm | - | 0 W/m² | - |
| 1777534363 | 2.78° C | 96% | 1020.2 hPa | 0 mm | - | 0 W/m² | - |
| 1777534061 | 2.78° C | 96% | 1019.9 hPa | 0 mm | - | 0 W/m² | - |
| 1777533758 | 2.78° C | 96% | 1019.9 hPa | 0 mm | - | 0 W/m² | - |
| 1777533454 | 2.78° C | 96% | 1020 hPa | 0 mm | - | 0 W/m² | - |
| 1777533150 | 2.78° C | 96% | 1019.9 hPa | 0 mm | - | 0 W/m² | - |
| 1777532848 | 2.78° C | 96% | 1020 hPa | 0 mm | - | 0 W/m² | - |
| 1777532544 | 2.78° C | 96% | 1020.4 hPa | 0 mm | - | 0 W/m² | - |
| 1777532241 | 2.78° C | 96% | 1020.4 hPa | 0 mm | - | 0 W/m² | - |
| 1777531937 | 2.78° C | 96% | 1020.4 hPa | 0 mm | - | 0 W/m² | - |
| 1777531633 | 2.78° C | 96% | 1020.4 hPa | 0 mm | - | 0 W/m² | - |
| 1777531331 | 3.33° C | 96% | 1020.4 hPa | 0 mm | - | 0 W/m² | - |
| 1777531028 | 3.33° C | 96% | 1020.6 hPa | 0 mm | - | 0 W/m² | - |
| 1777530725 | 3.33° C | 96% | 1020.6 hPa | 0 mm | - | 0 W/m² | - |
| 1777530423 | 3.33° C | 97% | 1020.6 hPa | 0 mm | - | 0 W/m² | - |
| 1777530118 | 3.33° C | 96% | 1020.7 hPa | 0 mm | - | 0 W/m² | - |
| 1777529816 | 2.78° C | 96% | 1020.6 hPa | 0 mm | - | 0 W/m² | - |
| 1777529512 | 2.78° C | 96% | 1020.7 hPa | 0 mm | - | 0 W/m² | - |
| 1777529210 | 3.33° C | 96% | 1020.7 hPa | 0 mm | - | 0 W/m² | - |
| 1777528905 | 3.33° C | 96% | 1020.7 hPa | 0 mm | - | 0 W/m² | - |
| 1777528601 | 3.33° C | 96% | 1020.6 hPa | 0 mm | - | 0 W/m² | - |
* Rain latest hour (hover to see other rain measurements)
** Current wind speed in m/s (hover to see current wind gust speed)